Tracking 31027 objects as of 19-Jul-2025
HD Live streaming from Space Station
objects crossing your sky now

IRIDIUM 131

Track IRIDIUM 131 now!
10-day predictions
IRIDIUM 131 is classified as:


NORAD ID: 43079
Int'l Code: 2017-083K
Perigee: 783.2 km
Apogee: 786.4 km
Inclination: 86.4 °
Period: 100.4 minutes
Semi major axis: 7155 km
RCS: Unknown
Launch date: December 23, 2017
Source: United States (US)
Launch site: AIR FORCE WESTERN TEST RANGE (AFWTR)
Your satellite tracking list
FLOCK 3P 17
Track 1 satellite(s)




NASA's NSSDC Master Catalog

Two Line Element Set (TLE):
1 43079U 17083K   25199.48679662 -.00000005  00000-0 -88017-5 0  9992
2 43079  86.3966 101.6822 0002248  86.1114 274.0339 14.34217406396277
Source of the keplerian elements: AFSPC